Location: *
(1.3500°S, 147.5000°W)
Time: 11:46:42
(UTC+00:00)

Milstar 3 Cent rocket - Pass Details

Date: 07 April 2020
Orbit: 707 x 5146 km, 28.3° (Epoch: 04 June)

Event Time Altitude Azimuth Distance (km) Brightness Sun altitude
Rises 05:49:38 0° 296° (WNW) 4,279 6.9 -29.3°
Reaches altitude 10° 05:51:50 10° 295° (WNW) 3,614 6.3 -29.9°
Maximum altitude 06:01:39 79° 209° (SSW) 2,424 4.3 -32.3°
Enters shadow 06:09:07 44° 131° (SE) 3,861 5.1 -34.2°
